IZ0ANE-13 Weather Reports


time (UTC)temp
F
wind
direction
speed
knots
gust
knots
rain 1hr
in
rain 24hr
in
rain mn
in
humidity
%
barometer
mb
20260507234003 72 10 6.1 13.9 0.00 0.00 0.00 50 1009.6
20260507232003 72 4 7.8 14.8 0.00 0.00 0.00 51 1009.8
20260507230003 72 349 5.2 12.2 0.00 0.00 0.00 52 1010.2
20260507224003 71 335 6.1 12.2 0.00 0.00 0.00 53 1010.2
20260507222003 71 356 6.1 13.9 0.00 0.00 0.00 54 1010.4
20260507220003 71 357 8.7 20.0 0.00 0.00 0.00 55 1010.6
20260507214003 71 346 8.7 15.6 0.00 0.00 0.00 55 1010.4
20260507212003 71 351 7.8 14.8 0.00 0.00 0.00 55 1010.3
20260507210003 72 357 7.0 13.0 0.00 0.00 0.00 56 1010.2
20260507204003 72 343 7.0 15.6 0.00 0.00 0.00 56 1010.5
20260507202003 72 348 6.1 11.3 0.00 0.00 0.00 55 1010.6
20260507200003 72 348 6.1 11.3 0.00 0.00 0.00 56 1010.8
20260507194003 72 354 5.2 12.2 0.00 0.00 0.00 56 1010.6
20260507192003 73 347 6.1 11.3 0.00 0.00 0.00 56 1010.7
20260507190004 73 338 6.1 13.0 0.00 0.00 0.00 56 1010.3
20260507184003 73 351 4.3 7.8 0.00 0.00 0.00 55 1010.1
20260507182003 73 358 2.6 6.1 0.00 0.00 0.00 52 1010.0
20260507180003 74 336 2.6 6.1 0.00 0.00 0.00 50 1010.3
20260507174003 74 11 1.7 3.5 0.00 0.00 0.00 52 1010.2
20260507172003 75 139 0.0 0.9 0.00 0.00 0.00 57 1010.1
20260507170024 76 175 0.0 0.9 0.00 0.00 0.00 56 1010.2
20260507164003 76 173 1.7 2.6 0.00 0.00 0.00 55 1010.2
20260507162003 78 213 0.9 1.7 0.00 0.00 0.00 38 1010.3
20260507160003 78 226 0.9 2.6 0.00 0.00 0.00 39 1010.2
20260507154003 78 148 0.9 2.6 0.00 0.00 0.00 39 1010.5
20260507152024 78 232 2.6 5.2 0.00 0.00 0.00 38 1010.5
20260507150024 78 215 1.7 3.5 0.00 0.00 0.00 39 1010.6
20260507144024 78 169 0.9 3.5 0.00 0.00 0.00 39 1010.6
20260507142003 78 159 3.5 6.1 0.00 0.00 0.00 39 1010.7
20260507140024 78 193 1.7 3.5 0.00 0.00 0.00 40 1010.9
20260507134024 79 189 1.7 3.5 0.00 0.00 0.00 36 1011.2
20260507132024 79 204 2.6 7.0 0.00 0.00 0.00 37 1011.3
20260507130003 80 155 0.9 2.6 0.00 0.00 0.00 39 1011.4
20260507124003 78 123 0.9 3.5 0.00 0.00 0.00 41 1011.9
20260507122003 78 252 0.9 3.5 0.00 0.00 0.00 42 1012.0
20260507120004 76 247 1.7 5.2 0.00 0.00 0.00 43 1012.3
20260507114003 78 234 0.9 1.7 0.00 0.00 0.00 47 1012.3
20260507112024 77 187 2.6 5.2 0.00 0.00 0.00 46 1012.4
20260507110003 74 170 4.3 7.0 0.00 0.00 0.00 52 1012.6
20260507104003 76 146 2.6 6.1 0.00 0.00 0.00 49 1013.0
20260507102024 76 256 0.9 2.6 0.00 0.00 0.00 49 1013.1
20260507100003 74 212 1.7 3.5 0.00 0.00 0.00 52 1013.3
20260507094003 73 150 1.7 2.6 0.00 0.00 0.00 53 1013.0
20260507092003 71 127 0.9 5.2 0.00 0.00 0.00 56 1013.0
20260507090004 70 76 0.9 3.5 0.00 0.00 0.00 59 1013.4
20260507084003 69 165 1.7 3.5 0.00 0.00 0.00 61 1013.8
20260507082003 68 132 1.7 2.6 0.00 0.00 0.00 66 1013.2
20260507080003 67 136 2.6 5.2 0.00 0.00 0.00 66 1013.6
20260507074003 67 186 2.6 6.1 0.00 0.00 0.00 68 1013.8
20260507072003 67 173 1.7 6.1 0.00 0.00 0.00 69 1013.9
20260507070007 65 194 2.6 3.5 0.00 0.00 0.00 72 1013.5
20260507064003 63 146 1.7 3.5 0.00 0.00 0.00 79 1013.6
20260507062003 62 159 1.7 1.7 0.00 0.00 0.00 80 1014.0
20260507060003 62 100 0.9 2.6 0.00 0.00 0.00 79 1014.1
20260507054003 60 340 0.9 1.7 0.00 0.00 0.00 85 1014.0
20260507052003 59 82 0.9 2.6 0.00 0.00 0.00 87 1014.0
20260507050003 58 169 0.9 0.9 0.00 0.00 0.00 90 1013.8
20260507044003 58 148 0.9 0.9 0.00 0.00 0.00 89 1013.7
20260507042003 58 0 0.0 0.0 0.00 0.00 0.00 88 1013.4
20260507040003 59 210 0.9 1.7 0.00 0.00 0.00 87 1013.1
20260507034003 60 223 0.9 1.7 0.00 0.00 0.00 85 1013.2
20260507032003 60 354 0.0 1.7 0.00 0.00 0.00 85 1013.1
20260507030003 60 59 0.9 2.6 0.00 0.00 0.00 86 1013.1
20260507024003 60 359 0.9 2.6 0.00 0.00 0.00 87 1013.4
20260507022003 60 87 0.9 0.9 0.00 0.00 0.00 86 1013.6
20260507014003 60 183 0.9 1.7 0.00 0.00 0.00 85 1013.5
20260507012024 61 18 0.9 0.9 0.00 0.00 0.00 79 1013.6
20260507010003 61 18 0.9 0.9 0.00 0.00 0.00 79 1013.3
20260507004003 61 13 1.7 2.6 0.00 0.00 0.00 79 1013.4
20260507002003 61 5 1.7 2.6 0.00 0.00 0.00 78 1013.4
20260507000003 61 3 1.7 2.6 0.00 0.00 0.00 78 1013.4